Location: Kumla
(59.1265°N, 15.1401°E)
Time: 17:45:13
(UTC+01:00)

Altair - Pass Details

Date: 04 December 2023
Orbit: 1501 x 1682 km, 47.2° (Epoch: 25 February)

Event Time Altitude Azimuth Distance (km) Brightness Sun altitude
Rises 08:33:26 0° 212° (SSW) 4,804 10.3 -0.7°
Reaches altitude 10° 08:37:11 10° 201° (SSW) 3,792 10.0 -0.4°
Maximum altitude 08:44:40 27° 149° (SSE) 2,651 10.1 0.2°
Drops below altitude 10° 08:51:58 10° 97° (E) 3,696 10.3 0.9°
Sets 08:55:32 0° 85° (E) 4,662 10.6 1.2°
